Location: Guadanolo
(41.9167°N, 12.9333°E)
Time: 13:30:32
(UTC+00:00)

Cosmos 2366 rocket - Pass Details

Date: 16 September 2019
Orbit: 956 x 996 km, 82.9° (Epoch: 20 October)

Event Time Altitude Azimuth Distance (km) Brightness Sun altitude
Rises 19:42:18 0° 352° (N) 3,721 7.6 -26.5°
Reaches altitude 10° 19:44:50 10° 353° (N) 2,771 6.8 -26.9°
Maximum altitude 19:51:14 88° 85° (E) 1,003 3.9 -27.9°
Enters shadow 19:52:03 70° 169° (SSE) 1,057 3.9 -28.1°
